Location: Babice
(50.3480°N, 22.9363°E)
Time: 12:30:43
(UTC+00:00)

Cosmos 1066 Rocket - Pass Details

Date: 14 July 2020
Orbit: 799 x 894 km, 81.2° (Epoch: 07 August)

Event Time Altitude Azimuth Distance (km) Brightness Sun altitude
Rises 01:03:41 0° 346° (NNW) 3,511 8.1 -10.8°
Reaches altitude 10° 01:06:08 10° 346° (NNW) 2,572 7.3 -10.6°
Maximum altitude 01:12:01 81° 261° (W) 912 4.3 -10.0°
Drops below altitude 10° 01:17:51 10° 174° (S) 2,551 6.3 -9.5°
Sets 01:20:17 0° 174° (S) 3,479 7.0 -9.2°
Enters shadow 01:20:20 - 174° (S) 3,500 7.0 -9.2°
